EN

Hourly Weather Alshanskiy

Today, 21 January, Thursday

Time Temperature Precipitation Wind Pressure Humidity
00:00 -24°C° 0 mm 2 mps 763 mmHg 97%
01:00 -24°C° 0 mm 2 mps 764 mmHg 97%
02:00 -24°C° 0 mm 2 mps 764 mmHg 97%
03:00 -24°C° 0 mm 2 mps 764 mmHg 98%
04:00 -24°C° 0 mm 2 mps 764 mmHg 98%
05:00 -24°C° 0 mm 2 mps 765 mmHg 97%
06:00 -24°C° 0 mm 2 mps 765 mmHg 97%
07:00 -23°C° 0 mm 2 mps 765 mmHg 97%
08:00 -23°C° 0 mm 2 mps 765 mmHg 97%
09:00 -23°C° 0 mm 2 mps 765 mmHg 96%
10:00 -20°C° 0 mm 2 mps 766 mmHg 94%
11:00 -19°C° 0 mm 2 mps 766 mmHg 93%
12:00 -18°C° 0 mm 3 mps 766 mmHg 92%
13:00 -18°C° 0 mm 3 mps 765 mmHg 91%
14:00 -17°C° 0 mm 3 mps 765 mmHg 91%
15:00 -17°C° 0 mm 3 mps 764 mmHg 90%
16:00 -18°C° 0 mm 4 mps 764 mmHg 89%
17:00 -19°C° 0 mm 4 mps 764 mmHg 88%
18:00 -19°C° 0 mm 4 mps 764 mmHg 87%
19:00 -19°C° 0 mm 5 mps 764 mmHg 86%
20:00 -18°C° 0 mm 5 mps 763 mmHg 85%
21:00 -17°C° 0 mm 6 mps 763 mmHg 84%
22:00 -16°C° 0 mm 6 mps 762 mmHg 87%
23:00 -15°C° 0 mm 7 mps 762 mmHg 89%

Tomorrow, 22 January, Friday

Time Temperature Precipitation Wind Pressure Humidity
00:00 -14°C° 0 mm 7 mps 761 mmHg 92%
01:00 -13°C° 0.1 mm 7 mps 761 mmHg 92%
02:00 -10°C° 0.1 mm 6 mps 761 mmHg 93%
03:00 -9°C° 0.1 mm 6 mps 761 mmHg 93%
04:00 -8°C° 0 mm 6 mps 760 mmHg 93%
05:00 -6°C° 0 mm 5 mps 760 mmHg 94%
06:00 -5°C° 0 mm 5 mps 760 mmHg 94%
07:00 -4°C° 0 mm 5 mps 760 mmHg 95%
08:00 -4°C° 0 mm 5 mps 760 mmHg 95%
09:00 -2°C° 0 mm 5 mps 760 mmHg 95%
10:00 -2°C° 0 mm 5 mps 760 mmHg 96%
11:00 -1°C° 0 mm 4 mps 760 mmHg 97%
12:00 -1°C° 0 mm 4 mps 760 mmHg 99%
13:00 -1°C° 0 mm 4 mps 760 mmHg 99%
14:00 -1°C° 0 mm 4 mps 760 mmHg 99%
15:00 0°C° 0 mm 4 mps 760 mmHg 99%
16:00 0°C° 0 mm 4 mps 760 mmHg 99%
17:00 0°C° 0 mm 4 mps 760 mmHg 98%
18:00 0°C° 0 mm 4 mps 760 mmHg 98%
19:00 0°C° 0 mm 4 mps 760 mmHg 97%
20:00 0°C° 0 mm 4 mps 760 mmHg 97%
21:00 0°C° 0 mm 4 mps 760 mmHg 97%
22:00 0°C° 0 mm 5 mps 760 mmHg 97%
23:00 0°C° 0 mm 5 mps 760 mmHg 97%

Day after tomorrow, 23 January, Saturday

Time Temperature Precipitation Wind Pressure Humidity
00:00 0°C° 0 mm 5 mps 760 mmHg 98%
01:00 0°C° 0 mm 5 mps 760 mmHg 98%
02:00 0°C° 0 mm 5 mps 760 mmHg 98%
03:00 0°C° 0 mm 5 mps 760 mmHg 98%
04:00 0°C° 0 mm 5 mps 760 mmHg 98%
05:00 0°C° 0 mm 5 mps 760 mmHg 98%
06:00 0°C° 0 mm 5 mps 760 mmHg 98%
07:00 -1°C° 0 mm 5 mps 760 mmHg 97%
08:00 -1°C° 0 mm 5 mps 760 mmHg 97%
09:00 -1°C° 0 mm 5 mps 760 mmHg 96%
10:00 -1°C° 0.2 mm 5 mps 760 mmHg 95%
11:00 -1°C° 0.2 mm 5 mps 760 mmHg 94%
12:00 -1°C° 0.2 mm 5 mps 760 mmHg 93%
13:00 -1°C° 0 mm 5 mps 760 mmHg 93%
14:00 -1°C° 0 mm 5 mps 760 mmHg 93%
15:00 -1°C° 0 mm 5 mps 760 mmHg 93%
16:00 -1°C° 0 mm 5 mps 760 mmHg 91%
17:00 -1°C° 0 mm 5 mps 760 mmHg 89%
18:00 -1°C° 0 mm 4 mps 760 mmHg 87%
19:00 -1°C° 0 mm 4 mps 760 mmHg 86%
20:00 -2°C° 0 mm 4 mps 760 mmHg 84%
21:00 -2°C° 0 mm 4 mps 760 mmHg 83%
22:00 -2°C° 0 mm 4 mps 760 mmHg 83%
23:00 -2°C° 0 mm 5 mps 760 mmHg 83%

24 January, Sunday

Time Temperature Precipitation Wind Pressure Humidity
00:00 -2°C° 0 mm 5 mps 760 mmHg 82%
01:00 -2°C° 0 mm 5 mps 760 mmHg 83%
02:00 -4°C° 0 mm 5 mps 760 mmHg 84%
03:00 -4°C° 0 mm 5 mps 760 mmHg 84%
04:00 -3°C° 0 mm 4 mps 760 mmHg 84%
05:00 -3°C° 0 mm 4 mps 760 mmHg 83%
06:00 -3°C° 0 mm 4 mps 760 mmHg 83%
07:00 -4°C° 0 mm 5 mps 760 mmHg 84%
08:00 -4°C° 0 mm 5 mps 760 mmHg 86%
09:00 -2°C° 0 mm 5 mps 760 mmHg 87%
10:00 -2°C° 0 mm 5 mps 760 mmHg 88%
11:00 -2°C° 0 mm 5 mps 760 mmHg 90%
12:00 -1°C° 0 mm 5 mps 760 mmHg 91%
13:00 -1°C° 0 mm 4 mps 760 mmHg 92%
14:00 -1°C° 0 mm 4 mps 760 mmHg 92%
15:00 -1°C° 0 mm 4 mps 759 mmHg 92%
16:00 -2°C° 0 mm 4 mps 759 mmHg 92%
17:00 -2°C° 0 mm 4 mps 760 mmHg 93%
18:00 -2°C° 0 mm 4 mps 760 mmHg 94%
19:00 -2°C° 0 mm 5 mps 759 mmHg 93%
20:00 -2°C° 0 mm 5 mps 759 mmHg 93%
21:00 -2°C° 0 mm 5 mps 759 mmHg 93%
22:00 -2°C° 0 mm 5 mps 759 mmHg 93%
23:00 -2°C° 0 mm 5 mps 759 mmHg 92%

25 January, Monday

Time Temperature Precipitation Wind Pressure Humidity
00:00 -2°C° 0 mm 5 mps 759 mmHg 92%
01:00 -2°C° 0 mm 5 mps 759 mmHg 93%
02:00 -4°C° 0 mm 5 mps 758 mmHg 93%
03:00 -4°C° 0 mm 5 mps 758 mmHg 94%
04:00 -4°C° 0 mm 5 mps 758 mmHg 94%
05:00 -4°C° 0 mm 5 mps 758 mmHg 94%
06:00 -4°C° 0 mm 5 mps 758 mmHg 94%
07:00 -2°C° 0 mm 5 mps 758 mmHg 94%
08:00 -2°C° 0 mm 5 mps 758 mmHg 94%
09:00 -3°C° 0 mm 6 mps 758 mmHg 94%
10:00 -2°C° 0 mm 5 mps 758 mmHg 95%
11:00 -2°C° 0 mm 5 mps 758 mmHg 96%
12:00 -2°C° 0 mm 5 mps 758 mmHg 97%
13:00 -2°C° 0 mm 5 mps 758 mmHg 97%
14:00 -2°C° 0 mm 4 mps 758 mmHg 97%
15:00 -2°C° 0 mm 4 mps 757 mmHg 97%
16:00 -2°C° 0 mm 4 mps 757 mmHg 96%
17:00 -2°C° 0 mm 4 mps 757 mmHg 96%
18:00 -2°C° 0 mm 5 mps 757 mmHg 96%
19:00 -2°C° 0 mm 5 mps 757 mmHg 96%
20:00 -2°C° 0 mm 5 mps 757 mmHg 96%
21:00 -3°C° 0 mm 6 mps 757 mmHg 96%
22:00 -3°C° 0 mm 6 mps 757 mmHg 96%
23:00 -3°C° 0 mm 6 mps 757 mmHg 96%

26 January, Tuesday

Time Temperature Precipitation Wind Pressure Humidity
00:00 -3°C° 0 mm 6 mps 757 mmHg 96%
01:00 -3°C° 0 mm 6 mps 757 mmHg 95%
02:00 -3°C° 0 mm 6 mps 756 mmHg 94%
03:00 -2°C° 0 mm 6 mps 756 mmHg 94%
04:00 -2°C° 0 mm 6 mps 756 mmHg 93%
05:00 -2°C° 0 mm 7 mps 756 mmHg 93%
06:00 -2°C° 0 mm 7 mps 755 mmHg 93%
07:00 -2°C° 0 mm 7 mps 755 mmHg 93%
08:00 -2°C° 0 mm 7 mps 755 mmHg 93%
09:00 -2°C° 0 mm 7 mps 755 mmHg 93%
10:00 -2°C° 0 mm 7 mps 755 mmHg 95%
11:00 -2°C° 0 mm 7 mps 754 mmHg 96%
12:00 -2°C° 0 mm 7 mps 754 mmHg 97%
13:00 -2°C° 0.2 mm 7 mps 754 mmHg 98%
14:00 -2°C° 0.2 mm 7 mps 753 mmHg 98%
15:00 -1°C° 0.2 mm 7 mps 752 mmHg 98%
16:00 -1°C° 0.2 mm 8 mps 753 mmHg 96%
17:00 -1°C° 0.2 mm 8 mps 753 mmHg 95%
18:00 -1°C° 0.2 mm 9 mps 753 mmHg 93%
19:00 -1°C° 0.3 mm 8 mps 753 mmHg 94%
20:00 -1°C° 0.3 mm 8 mps 753 mmHg 96%
21:00 -1°C° 0.3 mm 7 mps 754 mmHg 97%
22:00 -1°C° 0 mm 6 mps 754 mmHg 96%
23:00 -1°C° 0 mm 6 mps 754 mmHg 96%
Show more